This demonstration page uses our WeatherBlox Daily Observations layout. Learn more.

Left ArrowRight Arrow

39.95238, -75.16362

Hourly Observations for September 1, 2022

Temp ( °F °C ) Dew Point ( °F °C ) Humidity (%) Winds ( mph kmh ) Pressure ( in mb ) Visibility ( mi km ) Precip ( " mm )
12:54 am 00:54 Clear 74 23.3 56 13.3 53 53 W 8 13 29.91 1013 10 16 0.00 0.00
1:54 am 01:54 Clear 72 22.2 57 13.9 59 59 W 8 13 29.91 1013 10 16 0.00 0.00
2:54 am 02:54 Clear 72 22.2 57 13.9 59 59 W 9 15 29.92 1013 10 16 0.00 0.00
3:54 am 03:54 Clear 70 21.1 59 15 68 68 WSW 10 17 29.92 1013 10 16 0.00 0.00
4:54 am 04:54 Clear 70 21.1 60 15.6 71 71 WSW 8 13 29.93 1014 10 16 0.00 0.00
5:54 am 05:54 Clear 70 21.1 59 15 68 68 WSW 6 9 29.93 1014 10 16 0.00 0.00
6:54 am 06:54 Sunny 70 21.1 61 16.1 73 73 SW 7 11 29.96 1015 10 16 0.00 0.00
7:54 am 07:54 Mostly Sunny 72 22.2 62 16.7 71 71 WSW 9 15 29.98 1015 10 16 0.00 0.00
8:54 am 08:54 Mostly Sunny 75 23.9 59 15 57 57 W 12 19 29.98 1015 10 16 0.00 0.00
9:54 am 09:54 Mostly Sunny 78 25.6 60 15.6 54 54 WSW 10 17 29.99 1016 10 16 0.00 0.00
10:54 am 10:54 Mostly Sunny 81 27.2 59 15 47 47 W 9 15 29.99 1016 10 16 0.00 0.00
11:54 am 11:54 Partly Cloudy 84 28.9 58 14.4 41 41 W 12 19 29.98 1015 10 16 0.00 0.00
12:54 pm 12:54 Partly Cloudy 85 29.4 55 12.8 36 36 WNW 10 17 29.97 1015 10 16 0.00 0.00
1:54 pm 13:54 Partly Cloudy 86 30 55 12.8 35 35 WNW 6 9 29.97 1015 10 16 0.00 0.00
2:54 pm 14:54 Mostly Sunny 87 30.6 58 14.4 37 37 WSW 15 24 29.96 1015 10 16 0.00 0.00
3:54 pm 15:54 Mostly Sunny 88 31.1 57 13.9 35 35 W 15 24 29.94 1014 10 16 0.00 0.00
4:54 pm 16:54 Mostly Sunny 88 31.1 55 12.8 33 33 W 12 19 29.94 1014 10 16 0.00 0.00
5:54 pm 17:54 Mostly Sunny 88 31.1 55 12.8 33 33 WNW 12 19 29.94 1014 10 16 0.00 0.00
6:54 pm 18:54 Mostly Sunny 87 30.6 52 11.1 30 30 WNW 12 19 29.96 1014 10 16 0.00 0.00
7:54 pm 19:54 Clear 85 29.4 53 11.7 34 34 WNW 8 13 29.97 1015 10 16 0.00 0.00
8:54 pm 20:54 Clear 83 28.3 51 10.6 33 33 NW 8 13 30.01 1016 10 16 0.00 0.00
9:54 pm 21:54 Clear 79 26.1 49 9.4 35 35 N 7 11 30.02 1017 10 16 0.00 0.00
10:54 pm 22:54 Clear 78 25.6 47 8.3 33 33 N 10 17 30.04 1017 10 16 0.00 0.00
11:54 pm 23:54 Clear 74 23.3 50 10 43 43 NE 8 13 30.06 1018 10 16 0.00 0.00

Powered by AerisWeather